Time,TemperatureF,DewpointF,PressureIn,WindDirection,WindDirectionDegrees,WindSpeedMPH,WindSpeedGustMPH,Humidity,HourlyPrecipIn,Conditions,Clouds,dailyrainin,SoftwareType,DateUTC
2013-07-14 00:00:00,72.3,63.9,29.75,SSW,202,0.0,0.0,75,0.00,,---,0.00,VWS V14.01,2013-07-14 07:00:00,
2013-07-14 00:05:00,72.3,63.6,29.75,SSW,202,1.0,5.0,74,0.00,,---,0.00,VWS V14.01,2013-07-14 07:05:00,
2013-07-14 00:10:00,71.5,61.6,29.75,SW,225,5.0,9.0,71,0.00,,---,0.00,VWS V14.01,2013-07-14 07:10:00,
2013-07-14 00:15:00,70.6,60.8,29.75,SSW,202,5.0,12.0,71,0.00,,---,0.00,VWS V14.01,2013-07-14 07:15:00,
2013-07-14 00:20:00,70.6,60.8,29.76,South,180,1.0,5.0,71,0.00,,---,0.00,VWS V14.01,2013-07-14 07:20:00,
2013-07-14 00:25:00,70.3,60.5,29.76,South,180,0.0,0.0,71,0.00,,---,0.00,VWS V14.01,2013-07-14 07:25:00,
2013-07-14 00:30:00,70.1,60.3,29.76,South,180,0.0,0.0,71,0.00,,---,0.00,VWS V14.01,2013-07-14 07:30:00,
2013-07-14 00:35:00,69.8,60.4,29.76,South,180,0.0,0.0,72,0.00,,---,0.00,VWS V14.01,2013-07-14 07:35:00,
2013-07-14 00:40:00,69.9,59.3,29.76,SSW,202,1.0,6.0,69,0.00,,---,0.00,VWS V14.01,2013-07-14 07:40:00,
2013-07-14 00:45:00,70.0,59.4,29.75,South,180,0.0,1.0,69,0.00,,---,0.00,VWS V14.01,2013-07-14 07:45:00,
2013-07-14 00:50:00,69.8,60.4,29.75,South,180,0.0,4.0,72,0.00,,---,0.00,VWS V14.01,2013-07-14 07:50:00,
2013-07-14 00:55:00,69.5,60.9,29.75,SSE,158,0.0,2.0,74,0.00,,---,0.00,VWS V14.01,2013-07-14 07:55:00,
2013-07-14 01:00:00,69.5,60.5,29.75,SSE,158,0.0,0.0,73,0.00,,---,0.00,VWS V14.01,2013-07-14 08:00:00,
2013-07-14 01:05:00,69.5,60.1,29.75,SSE,158,0.0,0.0,72,0.00,,---,0.00,VWS V14.01,2013-07-14 08:05:00,
2013-07-14 01:10:00,69.6,60.2,29.75,SSE,158,0.0,0.0,72,0.00,,---,0.00,VWS V14.01,2013-07-14 08:10:00,
2013-07-14 01:15:00,69.6,59.8,29.75,SSE,158,0.0,1.0,71,0.00,,---,0.00,VWS V14.01,2013-07-14 08:15:00,
2013-07-14 01:20:00,69.6,59.8,29.75,SSE,158,0.0,0.0,71,0.00,,---,0.00,VWS V14.01,2013-07-14 08:20:00,
2013-07-14 01:25:00,69.5,60.1,29.74,SSE,158,0.0,0.0,72,0.00,,---,0.00,VWS V14.01,2013-07-14 08:25:00,
2013-07-14 01:30:00,69.3,59.9,29.75,SSE,158,0.0,0.0,72,0.00,,---,0.00,VWS V14.01,2013-07-14 08:30:00,
2013-07-14 01:35:00,69.3,59.5,29.75,ESE,112,0.0,5.0,71,0.00,,---,0.00,VWS V14.01,2013-07-14 08:35:00,
2013-07-14 01:40:00,69.6,59.0,29.75,ESE,112,1.0,4.0,69,0.00,,---,0.00,VWS V14.01,2013-07-14 08:40:00,
2013-07-14 01:45:00,69.9,58.9,29.75,SE,135,0.0,5.0,68,0.00,,---,0.00,VWS V14.01,2013-07-14 08:45:00,
2013-07-14 01:50:00,70.0,59.0,29.75,SE,135,0.0,0.0,68,0.00,,---,0.00,VWS V14.01,2013-07-14 08:50:00,
2013-07-14 01:55:00,70.0,59.0,29.74,SE,135,0.0,0.0,68,0.00,,---,0.00,VWS V14.01,2013-07-14 08:55:00,
2013-07-14 02:00:00,69.9,58.9,29.74,SE,135,0.0,4.0,68,0.00,,---,0.00,VWS V14.01,2013-07-14 09:00:00,
2013-07-14 02:05:00,70.1,59.1,29.75,SE,135,0.0,5.0,68,0.00,,---,0.00,VWS V14.01,2013-07-14 09:05:00,
2013-07-14 02:10:00,70.2,58.7,29.75,ESE,112,0.0,3.0,67,0.00,,---,0.00,VWS V14.01,2013-07-14 09:10:00,
2013-07-14 02:15:00,70.3,58.4,29.75,ESE,112,0.0,0.0,66,0.00,,---,0.00,VWS V14.01,2013-07-14 09:15:00,
2013-07-14 02:20:00,70.4,58.1,29.75,ESE,112,1.0,5.0,65,0.00,,---,0.00,VWS V14.01,2013-07-14 09:20:00,
2013-07-14 02:25:00,70.4,58.1,29.75,ESE,112,1.0,6.0,65,0.00,,---,0.00,VWS V14.01,2013-07-14 09:25:00,
2013-07-14 02:30:00,70.5,58.2,29.75,ESE,112,0.0,5.0,65,0.00,,---,0.00,VWS V14.01,2013-07-14 09:30:00,
2013-07-14 02:35:00,70.6,58.3,29.75,ESE,112,1.0,6.0,65,0.00,,---,0.00,VWS V14.01,2013-07-14 09:35:00,
2013-07-14 02:40:00,70.8,58.5,29.75,SE,135,1.0,6.0,65,0.00,,---,0.00,VWS V14.01,2013-07-14 09:40:00,
2013-07-14 02:45:00,70.8,58.9,29.75,SE,135,1.0,6.0,66,0.00,,---,0.00,VWS V14.01,2013-07-14 09:45:00,
2013-07-14 02:50:00,70.7,58.8,29.75,SE,135,0.0,5.0,66,0.00,,---,0.00,VWS V14.01,2013-07-14 09:50:00,
2013-07-14 02:55:00,70.6,59.1,29.75,SE,135,0.0,3.0,67,0.00,,---,0.00,VWS V14.01,2013-07-14 09:55:00,
2013-07-14 03:00:00,70.7,59.6,29.76,SE,135,0.0,1.0,68,0.00,,---,0.00,VWS V14.01,2013-07-14 10:00:00,
2013-07-14 03:05:00,70.7,59.6,29.76,ESE,112,0.0,3.0,68,0.00,,---,0.00,VWS V14.01,2013-07-14 10:05:00,
2013-07-14 03:10:00,70.6,59.1,29.76,ESE,112,1.0,6.0,67,0.00,,---,0.00,VWS V14.01,2013-07-14 10:10:00,
2013-07-14 03:15:00,70.9,59.0,29.76,ESE,112,3.0,6.0,66,0.00,,---,0.00,VWS V14.01,2013-07-14 10:15:00,
2013-07-14 03:20:00,71.3,58.5,29.76,ESE,112,4.0,6.0,64,0.00,,---,0.00,VWS V14.01,2013-07-14 10:20:00,
2013-07-14 03:25:00,71.8,58.5,29.76,SE,135,3.0,10.0,63,0.00,,---,0.00,VWS V14.01,2013-07-14 10:25:00,
2013-07-14 03:30:00,72.0,59.2,29.76,ESE,112,1.0,7.0,64,0.00,,---,0.00,VWS V14.01,2013-07-14 10:30:00,
2013-07-14 03:33:00,72.0,59.2,29.76,ESE,112,1.0,7.0,64,0.00,,---,0.00,VWS V14.01,2013-07-14 10:33:00,
2013-07-14 03:35:00,72.0,58.7,29.76,ESE,121,7.0,7.0,63,0.00,,---,0.00,VWS V14.01,2013-07-14 10:35:00,
2013-07-14 03:38:00,72.4,58.7,29.76,ESE,123,2.0,7.0,62,0.00,,---,0.00,VWS V14.01,2013-07-14 10:38:00,
2013-07-14 03:40:00,72.4,58.7,29.76,SE,138,5.0,10.0,62,0.00,,---,0.00,VWS V14.01,2013-07-14 10:40:00,
2013-07-14 03:43:00,72.6,58.4,29.77,ESE,115,5.0,10.0,61,0.00,,---,0.00,VWS V14.01,2013-07-14 10:43:00,
2013-07-14 03:45:00,72.5,58.8,29.77,ESE,122,9.0,9.0,62,0.00,,---,0.00,VWS V14.01,2013-07-14 10:45:00,
2013-07-14 03:48:00,72.9,58.7,29.77,ESE,114,9.0,11.0,61,0.00,,---,0.00,VWS V14.01,2013-07-14 10:48:00,
2013-07-14 03:50:00,72.8,58.6,29.77,SE,126,10.0,12.0,61,0.00,,---,0.00,VWS V14.01,2013-07-14 10:50:00,
2013-07-14 03:53:00,73.2,58.5,29.77,ESE,113,9.0,10.0,60,0.00,,---,0.00,VWS V14.01,2013-07-14 10:53:00,
2013-07-14 03:55:00,73.1,58.4,29.77,ESE,111,10.0,11.0,60,0.00,,---,0.00,VWS V14.01,2013-07-14 10:55:00,
2013-07-14 03:58:00,73.5,58.3,29.77,SE,125,9.0,12.0,59,0.00,,---,0.00,VWS V14.01,2013-07-14 10:58:00,
2013-07-14 04:00:00,73.5,58.3,29.77,ESE,118,12.0,13.0,59,0.00,,---,0.00,VWS V14.01,2013-07-14 11:00:00,
2013-07-14 04:03:00,73.8,58.1,29.77,SE,129,6.0,8.0,58,0.00,,---,0.00,VWS V14.01,2013-07-14 11:03:00,
2013-07-14 04:05:00,73.8,58.1,29.77,ESE,119,5.0,12.0,58,0.00,,---,0.00,VWS V14.01,2013-07-14 11:05:00,
2013-07-14 04:08:00,73.8,58.1,29.77,SE,138,3.0,6.0,58,0.00,,---,0.00,VWS V14.01,2013-07-14 11:08:00,
2013-07-14 04:10:00,73.8,58.1,29.77,SE,125,4.0,12.0,58,0.00,,---,0.00,VWS V14.01,2013-07-14 11:10:00,
2013-07-14 04:13:00,73.7,58.5,29.77,ESE,113,3.0,5.0,59,0.00,,---,0.00,VWS V14.01,2013-07-14 11:13:00,
2013-07-14 04:15:00,73.7,58.0,29.77,ESE,121,3.0,10.0,58,0.00,,---,0.00,VWS V14.01,2013-07-14 11:15:00,
2013-07-14 04:18:00,73.4,58.2,29.77,ESE,114,5.0,5.0,59,0.00,,---,0.00,VWS V14.01,2013-07-14 11:18:00,
2013-07-14 04:20:00,73.5,58.3,29.77,ESE,120,2.0,10.0,59,0.00,,---,0.00,VWS V14.01,2013-07-14 11:20:00,
2013-07-14 04:23:00,73.3,58.1,29.78,ESE,122,3.0,5.0,59,0.00,,---,0.00,VWS V14.01,2013-07-14 11:23:00,
2013-07-14 04:25:00,73.3,58.1,29.77,SE,128,5.0,10.0,59,0.00,,---,0.00,VWS V14.01,2013-07-14 11:25:00,
2013-07-14 04:28:00,73.5,58.3,29.77,ESE,115,7.0,7.0,59,0.00,,---,0.00,VWS V14.01,2013-07-14 11:28:00,
2013-07-14 04:30:00,73.5,58.3,29.78,ESE,112,6.0,10.0,59,0.00,,---,0.00,VWS V14.01,2013-07-14 11:30:00,
2013-07-14 04:33:00,73.7,59.0,29.78,SE,136,8.0,9.0,60,0.00,,---,0.00,VWS V14.01,2013-07-14 11:33:00,
2013-07-14 04:35:00,73.7,59.0,29.78,SE,130,4.0,14.0,60,0.00,,---,0.00,VWS V14.01,2013-07-14 11:35:00,
2013-07-14 04:38:00,73.6,59.8,29.78,ESE,119,9.0,10.0,62,0.00,,---,0.00,VWS V14.01,2013-07-14 11:38:00,
2013-07-14 04:40:00,73.6,59.8,29.78,ESE,116,5.0,17.0,62,0.00,,---,0.00,VWS V14.01,2013-07-14 11:40:00,
2013-07-14 04:43:00,73.2,60.7,29.78,ESE,114,4.0,11.0,65,0.00,,---,0.00,VWS V14.01,2013-07-14 11:43:00,
2013-07-14 04:45:00,73.2,60.3,29.78,ESE,102,10.0,16.0,64,0.00,,---,0.00,VWS V14.01,2013-07-14 11:45:00,
2013-07-14 04:48:00,72.8,60.8,29.78,ESE,108,6.0,11.0,66,0.00,,---,0.00,VWS V14.01,2013-07-14 11:48:00,
2013-07-14 04:50:00,72.8,60.8,29.78,SE,125,11.0,17.0,66,0.00,,---,0.00,VWS V14.01,2013-07-14 11:50:00,
2013-07-14 04:53:00,72.4,60.8,29.78,ESE,105,10.0,12.0,67,0.00,,---,0.00,VWS V14.01,2013-07-14 11:53:00,
2013-07-14 04:55:00,72.5,60.9,29.78,SSE,155,11.0,16.0,67,0.00,,---,0.00,VWS V14.01,2013-07-14 11:55:00,
2013-07-14 04:58:00,72.3,61.2,29.77,ESE,117,9.0,11.0,68,0.00,,---,0.00,VWS V14.01,2013-07-14 11:58:00,
2013-07-14 05:00:00,72.3,61.2,29.78,ESE,119,11.0,16.0,68,0.00,,---,0.00,VWS V14.01,2013-07-14 12:00:00,
2013-07-14 05:03:00,72.2,61.1,29.78,ESE,120,11.0,14.0,68,0.00,,---,0.00,VWS V14.01,2013-07-14 12:03:00,
2013-07-14 05:05:00,72.2,61.1,29.77,ESE,123,11.0,14.0,68,0.00,,---,0.00,VWS V14.01,2013-07-14 12:05:00,
2013-07-14 05:08:00,72.1,61.0,29.77,ESE,123,6.0,8.0,68,0.00,,---,0.00,VWS V14.01,2013-07-14 12:08:00,
2013-07-14 05:10:00,72.1,61.0,29.77,SE,127,3.0,14.0,68,0.00,,---,0.00,VWS V14.01,2013-07-14 12:10:00,
2013-07-14 05:13:00,72.1,61.0,29.77,ESE,119,8.0,10.0,68,0.00,,---,0.00,VWS V14.01,2013-07-14 12:13:00,
2013-07-14 05:15:00,72.1,61.0,29.78,ESE,121,10.0,11.0,68,0.00,,---,0.00,VWS V14.01,2013-07-14 12:15:00,
2013-07-14 05:18:00,72.2,60.7,29.77,SE,128,2.0,5.0,67,0.00,,---,0.00,VWS V14.01,2013-07-14 12:18:00,
2013-07-14 05:20:00,72.2,60.7,29.77,ESE,121,4.0,11.0,67,0.00,,---,0.00,VWS V14.01,2013-07-14 12:20:00,
2013-07-14 05:23:00,72.4,60.4,29.77,SE,127,3.0,5.0,66,0.00,,---,0.00,VWS V14.01,2013-07-14 12:23:00,
2013-07-14 05:25:00,72.4,60.4,29.77,SE,132,2.0,7.0,66,0.00,,---,0.00,VWS V14.01,2013-07-14 12:25:00,
2013-07-14 05:28:00,72.5,60.1,29.77,ESE,120,0.0,0.0,65,0.00,,---,0.00,VWS V14.01,2013-07-14 12:28:00,
2013-07-14 05:30:00,72.5,60.1,29.77,ESE,120,0.0,5.0,65,0.00,,---,0.00,VWS V14.01,2013-07-14 12:30:00,
2013-07-14 05:33:00,72.4,60.0,29.77,ESE,120,0.0,0.0,65,0.00,,---,0.00,VWS V14.01,2013-07-14 12:33:00,
2013-07-14 05:35:00,72.4,60.0,29.77,ESE,120,0.0,0.0,65,0.00,,---,0.00,VWS V14.01,2013-07-14 12:35:00,
2013-07-14 05:38:00,72.1,60.1,29.76,ESE,114,0.0,0.0,66,0.00,,---,0.00,VWS V14.01,2013-07-14 12:38:00,
2013-07-14 05:40:00,72.1,60.1,29.77,ESE,117,0.0,0.0,66,0.00,,---,0.00,VWS V14.01,2013-07-14 12:40:00,
2013-07-14 05:43:00,72.0,60.0,29.76,ESE,113,0.0,0.0,66,0.00,,---,0.00,VWS V14.01,2013-07-14 12:43:00,
2013-07-14 05:45:00,72.0,60.0,29.76,ESE,113,0.0,0.0,66,0.00,,---,0.00,VWS V14.01,2013-07-14 12:45:00,
2013-07-14 05:48:00,71.9,59.9,29.76,ESE,113,0.0,0.0,66,0.00,,---,0.00,VWS V14.01,2013-07-14 12:48:00,
2013-07-14 05:50:00,71.9,59.9,29.76,ESE,113,0.0,0.0,66,0.00,,---,0.00,VWS V14.01,2013-07-14 12:50:00,
2013-07-14 05:53:00,71.6,60.5,29.76,ESE,113,0.0,0.0,68,0.00,,---,0.00,VWS V14.01,2013-07-14 12:53:00,
2013-07-14 05:55:00,71.6,60.1,29.76,ESE,113,0.0,0.0,67,0.00,,---,0.00,VWS V14.01,2013-07-14 12:55:00,
2013-07-14 05:58:00,71.4,60.3,29.76,ESE,113,0.0,0.0,68,0.00,,---,0.00,VWS V14.01,2013-07-14 12:58:00,
2013-07-14 06:00:00,71.3,60.2,29.76,ESE,113,0.0,0.0,68,0.00,,---,0.00,VWS V14.01,2013-07-14 13:00:00,
2013-07-14 06:03:00,71.2,60.1,29.76,ESE,113,0.0,0.0,68,0.00,,---,0.00,VWS V14.01,2013-07-14 13:03:00,
2013-07-14 06:05:00,71.2,60.1,29.77,ESE,113,0.0,0.0,68,0.00,,---,0.00,VWS V14.01,2013-07-14 13:05:00,
2013-07-14 06:08:00,71.1,60.8,29.77,WSW,245,4.0,4.0,70,0.00,,---,0.00,VWS V14.01,2013-07-14 13:08:00,
2013-07-14 06:10:00,71.2,60.9,29.77,WSW,239,4.0,4.0,70,0.00,,---,0.00,VWS V14.01,2013-07-14 13:10:00,
2013-07-14 06:13:00,71.0,61.5,29.77,WSW,248,5.0,6.0,72,0.00,,---,0.00,VWS V14.01,2013-07-14 13:13:00,
2013-07-14 06:15:00,71.0,61.5,29.77,WSW,257,4.0,9.0,72,0.00,,---,0.00,VWS V14.01,2013-07-14 13:15:00,
2013-07-14 06:18:00,71.4,59.9,29.76,WSW,247,0.0,0.0,67,0.00,,---,0.00,VWS V14.01,2013-07-14 13:18:00,
2013-07-14 06:20:00,71.3,59.8,29.76,WSW,246,0.0,6.0,67,0.00,,---,0.00,VWS V14.01,2013-07-14 13:20:00,
2013-07-14 06:23:00,72.1,60.5,29.76,WSW,246,0.0,0.0,67,0.00,,---,0.00,VWS V14.01,2013-07-14 13:23:00,
2013-07-14 06:25:00,72.1,61.0,29.76,WSW,247,0.0,0.0,68,0.00,,---,0.00,VWS V14.01,2013-07-14 13:25:00,
2013-07-14 06:28:00,72.3,61.6,29.77,South,190,1.0,5.0,69,0.00,,---,0.00,VWS V14.01,2013-07-14 13:28:00,
2013-07-14 06:30:00,72.3,61.2,29.77,South,190,5.0,6.0,68,0.00,,---,0.00,VWS V14.01,2013-07-14 13:30:00,
2013-07-14 06:33:00,72.0,61.7,29.76,South,190,0.0,0.0,70,0.00,,---,0.00,VWS V14.01,2013-07-14 13:33:00,
2013-07-14 06:35:00,72.0,61.7,29.76,South,190,0.0,5.0,70,0.00,,---,0.00,VWS V14.01,2013-07-14 13:35:00,
2013-07-14 06:38:00,71.7,61.8,29.76,South,191,0.0,0.0,71,0.00,,---,0.00,VWS V14.01,2013-07-14 13:38:00,
2013-07-14 06:40:00,71.7,61.8,29.77,South,191,0.0,0.0,71,0.00,,---,0.00,VWS V14.01,2013-07-14 13:40:00,
2013-07-14 06:43:00,71.7,61.8,29.77,South,191,0.0,0.0,71,0.00,,---,0.00,VWS V14.01,2013-07-14 13:43:00,
2013-07-14 06:45:00,71.7,61.8,29.77,South,191,0.0,0.0,71,0.00,,---,0.00,VWS V14.01,2013-07-14 13:45:00,
2013-07-14 06:48:00,71.8,61.9,29.77,South,191,0.0,0.0,71,0.00,,---,0.00,VWS V14.01,2013-07-14 13:48:00,
2013-07-14 06:50:00,71.8,61.9,29.76,South,191,0.0,0.0,71,0.00,,---,0.00,VWS V14.01,2013-07-14 13:50:00,
2013-07-14 06:53:00,71.8,61.9,29.76,South,191,0.0,0.0,71,0.00,,---,0.00,VWS V14.01,2013-07-14 13:53:00,
2013-07-14 06:55:00,71.8,61.9,29.77,South,191,0.0,0.0,71,0.00,,---,0.00,VWS V14.01,2013-07-14 13:55:00,
2013-07-14 06:58:00,72.0,62.1,29.76,South,191,0.0,0.0,71,0.00,,---,0.00,VWS V14.01,2013-07-14 13:58:00,
2013-07-14 07:00:00,72.0,62.1,29.76,South,191,0.0,0.0,71,0.00,,---,0.00,VWS V14.01,2013-07-14 14:00:00,
2013-07-14 07:03:00,72.2,62.3,29.76,South,191,0.0,0.0,71,0.00,,---,0.00,VWS V14.01,2013-07-14 14:03:00,
2013-07-14 07:05:00,72.2,62.3,29.77,South,191,0.0,0.0,71,0.00,,---,0.00,VWS V14.01,2013-07-14 14:05:00,
2013-07-14 07:08:00,72.2,62.7,29.76,South,191,0.0,0.0,72,0.00,,---,0.00,VWS V14.01,2013-07-14 14:08:00,
2013-07-14 07:10:00,72.2,62.7,29.76,South,191,0.0,0.0,72,0.00,,---,0.00,VWS V14.01,2013-07-14 14:10:00,
2013-07-14 07:13:00,72.2,62.7,29.76,South,191,0.0,0.0,72,0.00,,---,0.00,VWS V14.01,2013-07-14 14:13:00,
2013-07-14 07:15:00,72.2,62.7,29.76,South,191,0.0,0.0,72,0.00,,---,0.00,VWS V14.01,2013-07-14 14:15:00,
2013-07-14 07:18:00,72.4,62.5,29.76,South,191,0.0,0.0,71,0.00,,---,0.00,VWS V14.01,2013-07-14 14:18:00,
2013-07-14 07:20:00,72.4,62.5,29.76,South,191,0.0,0.0,71,0.00,,---,0.00,VWS V14.01,2013-07-14 14:20:00,
2013-07-14 07:23:00,73.1,62.7,29.76,South,191,0.0,0.0,70,0.00,,---,0.00,VWS V14.01,2013-07-14 14:23:00,
2013-07-14 07:25:00,73.1,62.7,29.76,South,191,0.0,0.0,70,0.00,,---,0.00,VWS V14.01,2013-07-14 14:25:00,
2013-07-14 07:28:00,74.0,62.4,29.76,South,190,0.0,0.0,67,0.00,,---,0.00,VWS V14.01,2013-07-14 14:28:00,
2013-07-14 07:30:00,74.0,62.8,29.76,South,190,0.0,0.0,68,0.00,,---,0.00,VWS V14.01,2013-07-14 14:30:00,
2013-07-14 07:33:00,74.8,62.3,29.76,South,178,0.0,0.0,65,0.00,,---,0.00,VWS V14.01,2013-07-14 14:33:00,
2013-07-14 07:35:00,74.8,62.7,29.76,South,178,0.0,2.0,66,0.00,,---,0.00,VWS V14.01,2013-07-14 14:35:00,
2013-07-14 07:38:00,75.4,62.4,29.76,ESE,123,0.0,0.0,64,0.00,,---,0.00,VWS V14.01,2013-07-14 14:38:00,
2013-07-14 07:40:00,75.4,62.4,29.76,ESE,123,0.0,0.0,64,0.00,,---,0.00,VWS V14.01,2013-07-14 14:40:00,
2013-07-14 07:43:00,75.7,62.7,29.76,ESE,122,0.0,0.0,64,0.00,,---,0.00,VWS V14.01,2013-07-14 14:43:00,
2013-07-14 07:45:00,75.6,62.6,29.76,ESE,123,0.0,0.0,64,0.00,,---,0.00,VWS V14.01,2013-07-14 14:45:00,
2013-07-14 07:48:00,75.8,61.9,29.76,ESE,123,0.0,0.0,62,0.00,,---,0.00,VWS V14.01,2013-07-14 14:48:00,
2013-07-14 07:50:00,75.8,61.9,29.76,ESE,123,0.0,0.0,62,0.00,,---,0.00,VWS V14.01,2013-07-14 14:50:00,
2013-07-14 07:53:00,76.2,61.8,29.76,ESE,122,0.0,0.0,61,0.00,,---,0.00,VWS V14.01,2013-07-14 14:53:00,
2013-07-14 07:55:00,76.2,61.8,29.76,ESE,123,0.0,0.0,61,0.00,,---,0.00,VWS V14.01,2013-07-14 14:55:00,
2013-07-14 07:58:00,76.8,61.9,29.76,ESE,123,0.0,0.0,60,0.00,,---,0.00,VWS V14.01,2013-07-14 14:58:00,
2013-07-14 08:00:00,76.8,61.9,29.76,ESE,123,0.0,0.0,60,0.00,,---,0.00,VWS V14.01,2013-07-14 15:00:00,
2013-07-14 08:03:00,77.5,62.1,29.76,ESE,123,0.0,0.0,59,0.00,,---,0.00,VWS V14.01,2013-07-14 15:03:00,
2013-07-14 08:05:00,77.5,62.1,29.76,ESE,123,0.0,0.0,59,0.00,,---,0.00,VWS V14.01,2013-07-14 15:05:00,
2013-07-14 08:08:00,77.4,61.5,29.76,ESE,123,0.0,0.0,58,0.00,,---,0.00,VWS V14.01,2013-07-14 15:08:00,
2013-07-14 08:10:00,77.4,61.0,29.76,ESE,123,0.0,0.0,57,0.00,,---,0.00,VWS V14.01,2013-07-14 15:10:00,
2013-07-14 08:13:00,77.5,61.6,29.76,ESE,123,0.0,0.0,58,0.00,,---,0.00,VWS V14.01,2013-07-14 15:13:00,
2013-07-14 08:15:00,77.5,61.6,29.76,ESE,123,0.0,0.0,58,0.00,,---,0.00,VWS V14.01,2013-07-14 15:15:00,
2013-07-14 08:18:00,78.0,61.5,29.76,ESE,123,0.0,0.0,57,0.00,,---,0.00,VWS V14.01,2013-07-14 15:18:00,
2013-07-14 08:20:00,78.0,61.5,29.76,ESE,123,0.0,0.0,57,0.00,,---,0.00,VWS V14.01,2013-07-14 15:20:00,
2013-07-14 08:23:00,78.3,61.3,29.76,SE,132,1.0,1.0,56,0.00,,---,0.00,VWS V14.01,2013-07-14 15:23:00,
2013-07-14 08:25:00,78.3,61.3,29.76,SE,126,0.0,2.0,56,0.00,,---,0.00,VWS V14.01,2013-07-14 15:25:00,
2013-07-14 08:28:00,78.3,61.3,29.76,SSW,196,0.0,0.0,56,0.00,,---,0.00,VWS V14.01,2013-07-14 15:28:00,
2013-07-14 08:30:00,78.3,61.3,29.76,SSW,196,0.0,4.0,56,0.00,,---,0.00,VWS V14.01,2013-07-14 15:30:00,
2013-07-14 08:33:00,78.7,61.2,29.76,SSW,196,0.0,0.0,55,0.00,,---,0.00,VWS V14.01,2013-07-14 15:33:00,
2013-07-14 08:35:00,78.7,61.2,29.76,SSW,196,0.0,0.0,55,0.00,,---,0.00,VWS V14.01,2013-07-14 15:35:00,
2013-07-14 08:38:00,78.7,60.7,29.76,SSW,198,1.0,1.0,54,0.00,,---,0.00,VWS V14.01,2013-07-14 15:38:00,
2013-07-14 08:40:00,78.7,60.7,29.76,SSW,198,0.0,4.0,54,0.00,,---,0.00,VWS V14.01,2013-07-14 15:40:00,
2013-07-14 08:43:00,78.8,60.2,29.76,SSW,200,2.0,3.0,53,0.00,,---,0.00,VWS V14.01,2013-07-14 15:43:00,
2013-07-14 08:45:00,78.7,60.2,29.76,SSW,200,3.0,3.0,53,0.00,,---,0.00,VWS V14.01,2013-07-14 15:45:00,
2013-07-14 08:48:00,79.1,61.0,29.76,SSW,213,2.0,3.0,54,0.00,,---,0.00,VWS V14.01,2013-07-14 15:48:00,
2013-07-14 08:50:00,79.1,61.0,29.76,SSW,213,3.0,4.0,54,0.00,,---,0.00,VWS V14.01,2013-07-14 15:50:00,
2013-07-14 08:53:00,79.6,61.5,29.76,SW,233,0.0,0.0,54,0.00,,---,0.00,VWS V14.01,2013-07-14 15:53:00,
2013-07-14 08:55:00,79.6,61.5,29.76,SW,233,0.0,4.0,54,0.00,,---,0.00,VWS V14.01,2013-07-14 15:55:00,
2013-07-14 08:58:00,80.0,59.7,29.76,SW,236,0.0,0.0,50,0.00,,---,0.00,VWS V14.01,2013-07-14 15:58:00,
2013-07-14 09:00:00,80.0,59.7,29.76,SW,236,0.0,4.0,50,0.00,,---,0.00,VWS V14.01,2013-07-14 16:00:00,
2013-07-14 09:03:00,80.2,59.9,29.76,NW,306,4.0,5.0,50,0.00,,---,0.00,VWS V14.01,2013-07-14 16:03:00,
2013-07-14 09:05:00,80.2,59.9,29.75,NW,306,5.0,7.0,50,0.00,,---,0.00,VWS V14.01,2013-07-14 16:05:00,
2013-07-14 09:08:00,80.2,58.8,29.75,NW,311,3.0,4.0,48,0.00,,---,0.00,VWS V14.01,2013-07-14 16:08:00,
2013-07-14 09:10:00,80.2,58.8,29.75,NW,311,4.0,5.0,48,0.00,,---,0.00,VWS V14.01,2013-07-14 16:10:00,
2013-07-14 09:13:00,80.5,59.6,29.75,NW,314,1.0,1.0,49,0.00,,---,0.00,VWS V14.01,2013-07-14 16:13:00,
2013-07-14 09:15:00,80.5,59.6,29.75,NW,314,0.0,6.0,49,0.00,,---,0.00,VWS V14.01,2013-07-14 16:15:00,
2013-07-14 09:18:00,80.7,59.2,29.75,WNW,303,2.0,3.0,48,0.00,,---,0.00,VWS V14.01,2013-07-14 16:18:00,
2013-07-14 09:20:00,80.7,59.2,29.75,WNW,303,1.0,4.0,48,0.00,,---,0.00,VWS V14.01,2013-07-14 16:20:00,
2013-07-14 09:23:00,81.1,59.6,29.75,WNW,302,0.0,2.0,48,0.00,,---,0.00,VWS V14.01,2013-07-14 16:23:00,
2013-07-14 09:25:00,81.1,59.6,29.75,WNW,302,2.0,5.0,48,0.00,,---,0.00,VWS V14.01,2013-07-14 16:25:00,
2013-07-14 09:28:00,81.4,59.8,29.75,WNW,298,4.0,4.0,48,0.00,,---,0.00,VWS V14.01,2013-07-14 16:28:00,
2013-07-14 09:30:00,81.4,59.8,29.75,WNW,298,4.0,6.0,48,0.00,,---,0.00,VWS V14.01,2013-07-14 16:30:00,
2013-07-14 09:33:00,81.6,59.4,29.75,West,278,3.0,3.0,47,0.00,,---,0.00,VWS V14.01,2013-07-14 16:33:00,
2013-07-14 09:35:00,81.6,59.4,29.75,West,277,2.0,8.0,47,0.00,,---,0.00,VWS V14.01,2013-07-14 16:35:00,
2013-07-14 09:38:00,82.1,59.3,29.75,West,274,4.0,6.0,46,0.00,,---,0.00,VWS V14.01,2013-07-14 16:38:00,
2013-07-14 09:40:00,82.1,59.3,29.75,West,275,6.0,8.0,46,0.00,,---,0.00,VWS V14.01,2013-07-14 16:40:00,
2013-07-14 09:43:00,82.6,59.1,29.75,West,281,5.0,5.0,45,0.00,,---,0.00,VWS V14.01,2013-07-14 16:43:00,
2013-07-14 09:45:00,82.6,59.1,29.75,NW,311,2.0,6.0,45,0.00,,---,0.00,VWS V14.01,2013-07-14 16:45:00,
2013-07-14 09:48:00,83.0,58.9,29.76,WNW,289,2.0,3.0,44,0.00,,---,0.00,VWS V14.01,2013-07-14 16:48:00,
2013-07-14 09:50:00,83.0,59.5,29.76,WNW,288,3.0,7.0,45,0.00,,---,0.00,VWS V14.01,2013-07-14 16:50:00,
2013-07-14 09:53:00,83.5,59.9,29.75,NW,313,1.0,4.0,45,0.00,,---,0.00,VWS V14.01,2013-07-14 16:53:00,
2013-07-14 09:55:00,83.4,59.8,29.75,NW,313,4.0,6.0,45,0.00,,---,0.00,VWS V14.01,2013-07-14 16:55:00,
2013-07-14 09:58:00,83.8,59.6,29.75,NW,309,2.0,3.0,44,0.00,,---,0.00,VWS V14.01,2013-07-14 16:58:00,
2013-07-14 10:00:00,83.8,59.6,29.75,NW,309,3.0,6.0,44,0.00,,---,0.00,VWS V14.01,2013-07-14 17:00:00,
2013-07-14 10:03:00,84.2,60.0,29.75,West,273,6.0,8.0,44,0.00,,---,0.00,VWS V14.01,2013-07-14 17:03:00,
2013-07-14 10:05:00,84.1,59.9,29.75,West,275,8.0,8.0,44,0.00,,---,0.00,VWS V14.01,2013-07-14 17:05:00,
2013-07-14 10:08:00,84.2,60.0,29.76,West,273,6.0,6.0,44,0.00,,---,0.00,VWS V14.01,2013-07-14 17:08:00,
2013-07-14 10:10:00,84.1,59.9,29.75,West,277,5.0,10.0,44,0.00,,---,0.00,VWS V14.01,2013-07-14 17:10:00,
2013-07-14 10:13:00,84.3,60.7,29.75,WNW,292,6.0,6.0,45,0.00,,---,0.00,VWS V14.01,2013-07-14 17:13:00,
2013-07-14 10:15:00,84.3,60.7,29.75,WNW,291,5.0,8.0,45,0.00,,---,0.00,VWS V14.01,2013-07-14 17:15:00,
2013-07-14 10:18:00,84.9,59.9,29.75,West,276,8.0,9.0,43,0.00,,---,0.00,VWS V14.01,2013-07-14 17:18:00,
2013-07-14 10:20:00,84.9,59.9,29.75,West,268,9.0,12.0,43,0.00,,---,0.00,VWS V14.01,2013-07-14 17:20:00,
2013-07-14 10:23:00,84.6,60.9,29.75,WSW,237,0.0,0.0,45,0.00,,---,0.00,VWS V14.01,2013-07-14 17:23:00,
2013-07-14 10:25:00,84.6,60.3,29.75,WSW,237,0.0,10.0,44,0.00,,---,0.00,VWS V14.01,2013-07-14 17:25:00,
2013-07-14 10:28:00,84.9,60.6,29.75,WNW,286,0.0,0.0,44,0.00,,---,0.00,VWS V14.01,2013-07-14 17:28:00,
2013-07-14 10:30:00,84.9,60.6,29.75,WNW,286,0.0,14.0,44,0.00,,---,0.00,VWS V14.01,2013-07-14 17:30:00,
2013-07-14 10:33:00,85.5,60.5,29.75,NW,315,6.0,6.0,43,0.00,,---,0.00,VWS V14.01,2013-07-14 17:33:00,
2013-07-14 10:35:00,85.5,60.5,29.75,NW,315,5.0,10.0,43,0.00,,---,0.00,VWS V14.01,2013-07-14 17:35:00,
2013-07-14 10:38:00,85.1,60.1,29.75,WSW,240,4.0,5.0,43,0.00,,---,0.00,VWS V14.01,2013-07-14 17:38:00,
2013-07-14 10:40:00,85.1,60.1,29.75,WSW,240,5.0,12.0,43,0.00,,---,0.00,VWS V14.01,2013-07-14 17:40:00,
2013-07-14 10:43:00,85.3,60.3,29.75,West,262,7.0,7.0,43,0.00,,---,0.00,VWS V14.01,2013-07-14 17:43:00,
2013-07-14 10:45:00,85.3,60.3,29.75,West,262,3.0,12.0,43,0.00,,---,0.00,VWS V14.01,2013-07-14 17:45:00,
2013-07-14 10:48:00,85.9,60.2,29.75,WNW,286,7.0,7.0,42,0.00,,---,0.00,VWS V14.01,2013-07-14 17:48:00,
2013-07-14 10:50:00,85.8,60.1,29.75,West,279,6.0,10.0,42,0.00,,---,0.00,VWS V14.01,2013-07-14 17:50:00,
2013-07-14 10:53:00,86.4,59.9,29.75,West,273,7.0,10.0,41,0.00,,---,0.00,VWS V14.01,2013-07-14 17:53:00,
2013-07-14 10:55:00,86.4,59.9,29.75,West,273,7.0,10.0,41,0.00,,---,0.00,VWS V14.01,2013-07-14 17:55:00,
2013-07-14 10:58:00,86.0,59.6,29.75,WSW,249,3.0,12.0,41,0.00,,---,0.00,VWS V14.01,2013-07-14 17:58:00,
2013-07-14 11:00:00,86.0,59.6,29.75,WSW,249,3.0,12.0,41,0.00,,---,0.00,VWS V14.01,2013-07-14 18:00:00,
2013-07-14 11:03:00,86.0,60.3,29.75,West,269,11.0,11.0,42,0.00,,---,0.00,VWS V14.01,2013-07-14 18:03:00,
2013-07-14 11:05:00,86.0,60.3,29.75,West,266,11.0,13.0,42,0.00,,---,0.00,VWS V14.01,2013-07-14 18:05:00,
2013-07-14 11:08:00,86.2,59.8,29.75,West,276,12.0,12.0,41,0.00,,---,0.00,VWS V14.01,2013-07-14 18:08:00,
2013-07-14 11:10:00,86.2,59.8,29.75,West,273,12.0,13.0,41,0.00,,---,0.00,VWS V14.01,2013-07-14 18:10:00,
2013-07-14 11:13:00,86.5,60.0,29.75,NW,306,2.0,2.0,41,0.00,,---,0.00,VWS V14.01,2013-07-14 18:13:00,
2013-07-14 11:15:00,86.5,60.0,29.75,NW,306,2.0,12.0,41,0.00,,---,0.00,VWS V14.01,2013-07-14 18:15:00,
2013-07-14 11:18:00,86.8,60.3,29.75,NW,304,5.0,5.0,41,0.00,,---,0.00,VWS V14.01,2013-07-14 18:18:00,
2013-07-14 11:20:00,86.8,60.3,29.75,NW,304,4.0,13.0,41,0.00,,---,0.00,VWS V14.01,2013-07-14 18:20:00,
2013-07-14 11:23:00,87.1,59.9,29.75,West,261,3.0,4.0,40,0.00,,---,0.00,VWS V14.01,2013-07-14 18:23:00,
2013-07-14 11:25:00,87.1,59.9,29.75,West,261,4.0,13.0,40,0.00,,---,0.00,VWS V14.01,2013-07-14 18:25:00,
2013-07-14 11:28:00,87.0,59.8,29.74,WNW,290,2.0,2.0,40,0.00,,---,0.00,VWS V14.01,2013-07-14 18:28:00,
2013-07-14 11:30:00,87.0,59.8,29.74,WNW,290,2.0,12.0,40,0.00,,---,0.00,VWS V14.01,2013-07-14 18:30:00,
2013-07-14 11:33:00,87.6,59.6,29.74,NW,319,6.0,10.0,39,0.00,,---,0.00,VWS V14.01,2013-07-14 18:33:00,
2013-07-14 11:35:00,87.6,59.6,29.74,NW,319,6.0,10.0,39,0.00,,---,0.00,VWS V14.01,2013-07-14 18:35:00,
2013-07-14 11:38:00,88.6,59.8,29.74,NW,316,0.0,8.0,38,0.00,,---,0.00,VWS V14.01,2013-07-14 18:38:00,
2013-07-14 11:40:00,88.6,59.8,29.74,NW,316,0.0,8.0,38,0.00,,---,0.00,VWS V14.01,2013-07-14 18:40:00,
2013-07-14 11:43:00,89.1,60.2,29.74,NW,316,9.0,12.0,38,0.00,,---,0.00,VWS V14.01,2013-07-14 18:43:00,
2013-07-14 11:45:00,89.1,60.2,29.74,NW,316,9.0,12.0,38,0.00,,---,0.00,VWS V14.01,2013-07-14 18:45:00,
2013-07-14 11:48:00,88.8,59.9,29.74,WSW,246,8.0,15.0,38,0.00,,---,0.00,VWS V14.01,2013-07-14 18:48:00,
2013-07-14 11:50:00,88.8,59.9,29.74,WSW,246,8.0,15.0,38,0.00,,---,0.00,VWS V14.01,2013-07-14 18:50:00,
2013-07-14 11:53:00,88.2,59.4,29.74,West,269,8.0,13.0,38,0.00,,---,0.00,VWS V14.01,2013-07-14 18:53:00,
2013-07-14 11:55:00,88.2,59.4,29.74,West,269,8.0,13.0,38,0.00,,---,0.00,VWS V14.01,2013-07-14 18:55:00,
2013-07-14 11:58:00,88.0,59.2,29.74,West,275,4.0,11.0,38,0.00,,---,0.00,VWS V14.01,2013-07-14 18:58:00,
2013-07-14 12:00:00,88.0,59.2,29.74,West,275,4.0,11.0,38,0.00,,---,0.00,VWS V14.01,2013-07-14 19:00:00,
2013-07-14 12:03:00,88.0,59.2,29.73,West,259,4.0,10.0,38,0.00,,---,0.00,VWS V14.01,2013-07-14 19:03:00,
2013-07-14 12:05:00,88.0,59.2,29.73,West,259,4.0,10.0,38,0.00,,---,0.00,VWS V14.01,2013-07-14 19:05:00,
2013-07-14 12:08:00,89.0,60.1,29.73,WNW,284,5.0,10.0,38,0.00,,---,0.00,VWS V14.01,2013-07-14 19:08:00,
2013-07-14 12:10:00,89.0,60.1,29.73,WNW,284,5.0,10.0,38,0.00,,---,0.00,VWS V14.01,2013-07-14 19:10:00,
2013-07-14 12:13:00,89.3,60.4,29.73,West,266,4.0,11.0,38,0.00,,---,0.00,VWS V14.01,2013-07-14 19:13:00,
2013-07-14 12:15:00,89.3,60.4,29.73,West,266,4.0,11.0,38,0.00,,---,0.00,VWS V14.01,2013-07-14 19:15:00,
2013-07-14 12:18:00,89.7,60.0,29.73,NW,313,5.0,11.0,37,0.00,,---,0.00,VWS V14.01,2013-07-14 19:18:00,
2013-07-14 12:20:00,89.7,60.0,29.73,NW,313,5.0,11.0,37,0.00,,---,0.00,VWS V14.01,2013-07-14 19:20:00,
2013-07-14 12:23:00,89.5,59.0,29.72,West,267,3.0,14.0,36,0.00,,---,0.00,VWS V14.01,2013-07-14 19:23:00,
2013-07-14 12:25:00,89.5,59.0,29.72,West,267,7.0,14.0,36,0.00,,---,0.00,VWS V14.01,2013-07-14 19:25:00,
2013-07-14 12:28:00,89.3,59.6,29.72,SSW,201,2.0,10.0,37,0.00,,---,0.00,VWS V14.01,2013-07-14 19:28:00,
2013-07-14 12:30:00,89.3,59.6,29.72,SSW,200,1.0,10.0,37,0.00,,---,0.00,VWS V14.01,2013-07-14 19:30:00,
2013-07-14 12:33:00,89.9,59.4,29.72,NW,306,11.0,14.0,36,0.00,,---,0.00,VWS V14.01,2013-07-14 19:33:00,
2013-07-14 12:35:00,89.9,59.4,29.72,WNW,293,9.0,14.0,36,0.00,,---,0.00,VWS V14.01,2013-07-14 19:35:00,
2013-07-14 12:38:00,90.1,59.6,29.72,West,279,5.0,13.0,36,0.00,,---,0.00,VWS V14.01,2013-07-14 19:38:00,
2013-07-14 12:40:00,90.1,59.6,29.72,WNW,288,6.0,13.0,36,0.00,,---,0.00,VWS V14.01,2013-07-14 19:40:00,
2013-07-14 12:43:00,90.5,59.1,29.72,WNW,292,3.0,16.0,35,0.00,,---,0.00,VWS V14.01,2013-07-14 19:43:00,
2013-07-14 12:45:00,90.5,59.1,29.72,WNW,292,2.0,16.0,35,0.00,,---,0.00,VWS V14.01,2013-07-14 19:45:00,
2013-07-14 12:48:00,91.0,58.8,29.71,West,261,11.0,13.0,34,0.00,,---,0.00,VWS V14.01,2013-07-14 19:48:00,
2013-07-14 12:50:00,91.0,58.8,29.71,West,261,9.0,13.0,34,0.00,,---,0.00,VWS V14.01,2013-07-14 19:50:00,
2013-07-14 12:53:00,91.8,58.6,29.71,NW,313,9.0,12.0,33,0.00,,---,0.00,VWS V14.01,2013-07-14 19:53:00,
2013-07-14 12:55:00,91.8,58.6,29.71,NW,315,6.0,12.0,33,0.00,,---,0.00,VWS V14.01,2013-07-14 19:55:00,
2013-07-14 12:58:00,91.1,58.8,29.71,NW,322,7.0,12.0,34,0.00,,---,0.00,VWS V14.01,2013-07-14 19:58:00,
2013-07-14 13:00:00,91.1,58.8,29.71,NW,322,7.0,12.0,34,0.00,,---,0.00,VWS V14.01,2013-07-14 20:00:00,
2013-07-14 13:03:00,90.9,57.8,29.70,WSW,257,5.0,10.0,33,0.00,,---,0.00,VWS V14.01,2013-07-14 20:03:00,
2013-07-14 13:05:00,90.9,57.8,29.70,WSW,257,6.0,10.0,33,0.00,,---,0.00,VWS V14.01,2013-07-14 20:05:00,
2013-07-14 13:08:00,90.9,57.8,29.70,WNW,283,3.0,9.0,33,0.00,,---,0.00,VWS V14.01,2013-07-14 20:08:00,
2013-07-14 13:10:00,90.9,57.8,29.70,WNW,283,3.0,9.0,33,0.00,,---,0.00,VWS V14.01,2013-07-14 20:10:00,
2013-07-14 13:13:00,91.4,59.1,29.70,NNW,330,6.0,10.0,34,0.00,,---,0.00,VWS V14.01,2013-07-14 20:13:00,
2013-07-14 13:15:00,91.5,59.2,29.70,NNW,346,5.0,10.0,34,0.00,,---,0.00,VWS V14.01,2013-07-14 20:15:00,
2013-07-14 13:18:00,91.8,58.6,29.69,SSW,202,6.0,6.0,33,0.00,,---,0.00,VWS V14.01,2013-07-14 20:18:00,
2013-07-14 13:20:00,91.8,58.6,29.69,SSW,200,9.0,9.0,33,0.00,,---,0.00,VWS V14.01,2013-07-14 20:20:00,
2013-07-14 13:23:00,92.4,58.3,29.69,NW,309,2.0,9.0,32,0.00,,---,0.00,VWS V14.01,2013-07-14 20:23:00,
2013-07-14 13:25:00,92.4,58.3,29.69,NW,317,5.0,9.0,32,0.00,,---,0.00,VWS V14.01,2013-07-14 20:25:00,
2013-07-14 13:28:00,92.2,58.1,29.69,SSW,211,4.0,11.0,32,0.00,,---,0.00,VWS V14.01,2013-07-14 20:28:00,
2013-07-14 13:30:00,92.2,58.1,29.69,SSW,212,5.0,11.0,32,0.00,,---,0.00,VWS V14.01,2013-07-14 20:30:00,
2013-07-14 13:33:00,92.3,58.2,29.69,WSW,250,5.0,13.0,32,0.00,,---,0.00,VWS V14.01,2013-07-14 20:33:00,
2013-07-14 13:35:00,92.3,58.2,29.69,West,272,11.0,13.0,32,0.00,,---,0.00,VWS V14.01,2013-07-14 20:35:00,
2013-07-14 13:38:00,92.4,58.3,29.69,West,267,5.0,14.0,32,0.00,,---,0.00,VWS V14.01,2013-07-14 20:38:00,
2013-07-14 13:40:00,92.4,58.3,29.69,WNW,288,7.0,14.0,32,0.00,,---,0.00,VWS V14.01,2013-07-14 20:40:00,
2013-07-14 13:43:00,92.6,59.3,29.68,WSW,254,7.0,14.0,33,0.00,,---,0.00,VWS V14.01,2013-07-14 20:43:00,
2013-07-14 13:45:00,92.6,59.3,29.68,WSW,256,8.0,14.0,33,0.00,,---,0.00,VWS V14.01,2013-07-14 20:45:00,
2013-07-14 13:48:00,92.4,58.3,29.68,NW,307,2.0,15.0,32,0.00,,---,0.00,VWS V14.01,2013-07-14 20:48:00,
2013-07-14 13:50:00,92.4,58.3,29.68,NW,307,6.0,15.0,32,0.00,,---,0.00,VWS V14.01,2013-07-14 20:50:00,
2013-07-14 13:53:00,92.7,59.4,29.68,SW,214,2.0,5.0,33,0.00,,---,0.00,VWS V14.01,2013-07-14 20:53:00,
2013-07-14 13:55:00,92.7,59.4,29.68,SW,214,5.0,14.0,33,0.00,,---,0.00,VWS V14.01,2013-07-14 20:55:00,
2013-07-14 13:58:00,92.7,58.5,29.68,SW,227,6.0,6.0,32,0.00,,---,0.00,VWS V14.01,2013-07-14 20:58:00,
2013-07-14 14:00:00,92.7,58.5,29.68,SSW,207,5.0,11.0,32,0.00,,---,0.00,VWS V14.01,2013-07-14 21:00:00,
2013-07-14 14:03:00,93.2,58.1,29.68,West,260,10.0,15.0,31,0.00,,---,0.00,VWS V14.01,2013-07-14 21:03:00,
2013-07-14 14:05:00,93.2,58.1,29.68,West,260,10.0,15.0,31,0.00,,---,0.00,VWS V14.01,2013-07-14 21:05:00,
2013-07-14 14:08:00,92.5,57.5,29.68,WSW,243,2.0,12.0,31,0.00,,---,0.00,VWS V14.01,2013-07-14 21:08:00,
2013-07-14 14:10:00,92.5,57.5,29.68,WSW,243,2.0,12.0,31,0.00,,---,0.00,VWS V14.01,2013-07-14 21:10:00,
2013-07-14 14:13:00,92.7,57.7,29.67,West,261,7.0,10.0,31,0.00,,---,0.00,VWS V14.01,2013-07-14 21:13:00,
2013-07-14 14:15:00,92.7,57.7,29.67,West,261,7.0,10.0,31,0.00,,---,0.00,VWS V14.01,2013-07-14 21:15:00,
2013-07-14 14:18:00,92.8,57.8,29.67,WSW,252,11.0,11.0,31,0.00,,---,0.00,VWS V14.01,2013-07-14 21:18:00,
2013-07-14 14:20:00,92.8,57.8,29.67,WSW,255,10.0,13.0,31,0.00,,---,0.00,VWS V14.01,2013-07-14 21:20:00,
2013-07-14 14:23:00,92.8,57.8,29.67,West,271,6.0,6.0,31,0.00,,---,0.00,VWS V14.01,2013-07-14 21:23:00,
2013-07-14 14:25:00,92.8,57.8,29.67,West,271,6.0,12.0,31,0.00,,---,0.00,VWS V14.01,2013-07-14 21:25:00,
2013-07-14 14:28:00,92.8,56.8,29.67,South,182,3.0,12.0,30,0.00,,---,0.00,VWS V14.01,2013-07-14 21:28:00,
2013-07-14 14:30:00,92.8,56.8,29.67,South,182,3.0,12.0,30,0.00,,---,0.00,VWS V14.01,2013-07-14 21:30:00,
2013-07-14 14:33:00,93.1,57.1,29.66,WSW,247,5.0,7.0,30,0.00,,---,0.00,VWS V14.01,2013-07-14 21:33:00,
2013-07-14 14:35:00,93.1,57.1,29.66,WSW,247,7.0,12.0,30,0.00,,---,0.00,VWS V14.01,2013-07-14 21:35:00,
2013-07-14 14:38:00,93.9,55.9,29.66,SSW,200,10.0,12.0,28,0.00,,---,0.00,VWS V14.01,2013-07-14 21:38:00,
2013-07-14 14:40:00,93.9,55.9,29.66,SSW,200,10.0,12.0,28,0.00,,---,0.00,VWS V14.01,2013-07-14 21:40:00,
2013-07-14 14:43:00,93.8,55.8,29.66,South,191,3.0,12.0,28,0.00,,---,0.00,VWS V14.01,2013-07-14 21:43:00,
2013-07-14 14:45:00,93.8,55.8,29.66,South,191,3.0,12.0,28,0.00,,---,0.00,VWS V14.01,2013-07-14 21:45:00,
2013-07-14 14:48:00,93.3,54.4,29.66,West,259,6.0,15.0,27,0.00,,---,0.00,VWS V14.01,2013-07-14 21:48:00,
2013-07-14 14:50:00,93.3,54.4,29.66,West,259,6.0,15.0,27,0.00,,---,0.00,VWS V14.01,2013-07-14 21:50:00,
2013-07-14 14:53:00,93.3,54.4,29.65,SW,225,2.0,10.0,27,0.00,,---,0.00,VWS V14.01,2013-07-14 21:53:00,
2013-07-14 14:55:00,93.3,54.4,29.65,SW,225,2.0,10.0,27,0.00,,---,0.00,VWS V14.01,2013-07-14 21:55:00,
2013-07-14 14:58:00,94.1,54.0,29.64,SW,217,4.0,11.0,26,0.00,,---,0.00,VWS V14.01,2013-07-14 21:58:00,
2013-07-14 15:00:00,94.1,54.0,29.64,SW,217,4.0,11.0,26,0.00,,---,0.00,VWS V14.01,2013-07-14 22:00:00,
2013-07-14 15:03:00,94.4,53.2,29.64,SW,219,6.0,11.0,25,0.00,,---,0.00,VWS V14.01,2013-07-14 22:03:00,
2013-07-14 15:05:00,94.4,53.2,29.64,SW,219,6.0,11.0,25,0.00,,---,0.00,VWS V14.01,2013-07-14 22:05:00,
2013-07-14 15:08:00,94.3,55.2,29.64,WNW,296,7.0,11.0,27,0.00,,---,0.00,VWS V14.01,2013-07-14 22:08:00,
2013-07-14 15:10:00,94.3,55.2,29.64,WNW,296,7.0,11.0,27,0.00,,---,0.00,VWS V14.01,2013-07-14 22:10:00,
2013-07-14 15:13:00,94.1,54.0,29.64,WNW,300,8.0,10.0,26,0.00,,---,0.00,VWS V14.01,2013-07-14 22:13:00,
2013-07-14 15:15:00,94.1,54.0,29.64,WNW,299,5.0,10.0,26,0.00,,---,0.00,VWS V14.01,2013-07-14 22:15:00,
2013-07-14 15:18:00,94.0,55.0,29.64,SSW,199,9.0,10.0,27,0.00,,---,0.00,VWS V14.01,2013-07-14 22:18:00,
2013-07-14 15:20:00,94.0,55.0,29.64,SSW,200,6.0,10.0,27,0.00,,---,0.00,VWS V14.01,2013-07-14 22:20:00,
2013-07-14 15:23:00,94.3,54.2,29.64,WSW,253,3.0,11.0,26,0.00,,---,0.00,VWS V14.01,2013-07-14 22:23:00,
2013-07-14 15:25:00,94.2,54.1,29.64,WSW,253,3.0,11.0,26,0.00,,---,0.00,VWS V14.01,2013-07-14 22:25:00,
2013-07-14 15:28:00,93.9,54.9,29.63,SW,224,0.0,7.0,27,0.00,,---,0.00,VWS V14.01,2013-07-14 22:28:00,
2013-07-14 15:30:00,93.9,53.8,29.63,SW,223,0.0,7.0,26,0.00,,---,0.00,VWS V14.01,2013-07-14 22:30:00,
2013-07-14 15:33:00,94.6,54.4,29.63,SW,219,3.0,9.0,26,0.00,,---,0.00,VWS V14.01,2013-07-14 22:33:00,
2013-07-14 15:35:00,94.6,54.4,29.63,SW,219,2.0,9.0,26,0.00,,---,0.00,VWS V14.01,2013-07-14 22:35:00,
2013-07-14 15:38:00,94.7,54.5,29.64,WSW,250,6.0,10.0,26,0.00,,---,0.00,VWS V14.01,2013-07-14 22:38:00,
2013-07-14 15:40:00,94.8,54.6,29.64,WSW,246,5.0,10.0,26,0.00,,---,0.00,VWS V14.01,2013-07-14 22:40:00,
2013-07-14 15:43:00,94.6,54.4,29.63,West,272,6.0,7.0,26,0.00,,---,0.00,VWS V14.01,2013-07-14 22:43:00,
2013-07-14 15:45:00,94.6,54.4,29.63,West,272,6.0,7.0,26,0.00,,---,0.00,VWS V14.01,2013-07-14 22:45:00,
2013-07-14 15:48:00,94.5,55.4,29.64,SW,221,9.0,11.0,27,0.00,,---,0.00,VWS V14.01,2013-07-14 22:48:00,
2013-07-14 15:50:00,94.5,55.4,29.64,SW,221,8.0,11.0,27,0.00,,---,0.00,VWS V14.01,2013-07-14 22:50:00,
2013-07-14 15:53:00,94.6,55.5,29.64,SW,234,10.0,13.0,27,0.00,,---,0.00,VWS V14.01,2013-07-14 22:53:00,
2013-07-14 15:55:00,94.6,55.5,29.64,SW,234,8.0,13.0,27,0.00,,---,0.00,VWS V14.01,2013-07-14 22:55:00,
2013-07-14 15:58:00,94.4,56.3,29.64,SSW,205,1.0,8.0,28,0.00,,---,0.00,VWS V14.01,2013-07-14 22:58:00,
2013-07-14 16:00:00,94.4,56.3,29.64,SSW,205,1.0,8.0,28,0.00,,---,0.00,VWS V14.01,2013-07-14 23:00:00,
2013-07-14 16:03:00,94.4,55.3,29.64,SSW,209,6.0,11.0,27,0.00,,---,0.00,VWS V14.01,2013-07-14 23:03:00,
2013-07-14 16:05:00,94.4,55.3,29.64,SSW,209,4.0,11.0,27,0.00,,---,0.00,VWS V14.01,2013-07-14 23:05:00,
2013-07-14 16:08:00,94.3,56.2,29.63,SW,223,7.0,9.0,28,0.00,,---,0.00,VWS V14.01,2013-07-14 23:08:00,
2013-07-14 16:10:00,94.3,56.2,29.63,SW,223,5.0,9.0,28,0.00,,---,0.00,VWS V14.01,2013-07-14 23:10:00,
2013-07-14 16:13:00,94.8,56.7,29.63,SSW,200,4.0,6.0,28,0.00,,---,0.00,VWS V14.01,2013-07-14 23:13:00,
2013-07-14 16:15:00,94.8,56.7,29.63,SSW,200,5.0,6.0,28,0.00,,---,0.00,VWS V14.01,2013-07-14 23:15:00,
2013-07-14 16:18:00,94.0,56.0,29.63,WSW,238,4.0,11.0,28,0.00,,---,0.00,VWS V14.01,2013-07-14 23:18:00,
2013-07-14 16:20:00,93.9,55.9,29.63,WSW,238,3.0,11.0,28,0.00,,---,0.00,VWS V14.01,2013-07-14 23:20:00,
2013-07-14 16:23:00,93.2,56.2,29.63,West,272,7.0,9.0,29,0.00,,---,0.00,VWS V14.01,2013-07-14 23:23:00,
2013-07-14 16:25:00,93.2,56.2,29.63,West,273,6.0,9.0,29,0.00,,---,0.00,VWS V14.01,2013-07-14 23:25:00,
2013-07-14 16:28:00,92.7,55.8,29.62,West,261,2.0,9.0,29,0.00,,---,0.00,VWS V14.01,2013-07-14 23:28:00,
2013-07-14 16:30:00,92.7,55.8,29.62,West,260,2.0,9.0,29,0.00,,---,0.00,VWS V14.01,2013-07-14 23:30:00,
2013-07-14 16:33:00,92.7,55.8,29.62,West,263,0.0,6.0,29,0.00,,---,0.00,VWS V14.01,2013-07-14 23:33:00,
2013-07-14 16:35:00,92.7,55.8,29.62,West,263,0.0,6.0,29,0.00,,---,0.00,VWS V14.01,2013-07-14 23:35:00,
2013-07-14 16:38:00,93.2,56.2,29.61,West,273,6.0,9.0,29,0.00,,---,0.00,VWS V14.01,2013-07-14 23:38:00,
2013-07-14 16:40:00,93.2,56.2,29.61,West,265,7.0,9.0,29,0.00,,---,0.00,VWS V14.01,2013-07-14 23:40:00,
2013-07-14 16:43:00,92.5,58.4,29.61,West,272,10.0,17.0,32,0.00,,---,0.00,VWS V14.01,2013-07-14 23:43:00,
2013-07-14 16:45:00,92.5,58.4,29.61,West,263,10.0,17.0,32,0.00,,---,0.00,VWS V14.01,2013-07-14 23:45:00,
2013-07-14 16:48:00,91.8,58.6,29.62,WNW,286,11.0,18.0,33,0.00,,---,0.00,VWS V14.01,2013-07-14 23:48:00,
2013-07-14 16:50:00,91.8,58.6,29.62,WNW,284,10.0,18.0,33,0.00,,---,0.00,VWS V14.01,2013-07-14 23:50:00,
2013-07-14 16:53:00,91.3,59.0,29.62,WNW,291,12.0,19.0,34,0.00,,---,0.00,VWS V14.01,2013-07-14 23:53:00,
2013-07-14 16:55:00,91.3,59.0,29.62,West,279,13.0,19.0,34,0.00,,---,0.00,VWS V14.01,2013-07-14 23:55:00,
2013-07-14 16:58:00,90.7,59.3,29.62,West,267,11.0,20.0,35,0.00,,---,0.00,VWS V14.01,2013-07-14 23:58:00,
2013-07-14 17:00:00,90.7,59.3,29.62,West,280,12.0,20.0,35,0.00,,---,0.00,VWS V14.01,2013-07-15 00:00:00,
2013-07-14 17:03:00,90.2,58.9,29.62,West,281,12.0,18.0,35,0.00,,---,0.00,VWS V14.01,2013-07-15 00:03:00,
2013-07-14 17:05:00,90.1,58.8,29.62,West,280,14.0,18.0,35,0.00,,---,0.00,VWS V14.01,2013-07-15 00:05:00,
2013-07-14 17:08:00,90.2,58.9,29.62,West,267,14.0,19.0,35,0.00,,---,0.00,VWS V14.01,2013-07-15 00:08:00,
2013-07-14 17:10:00,90.2,58.9,29.62,West,268,16.0,19.0,35,0.00,,---,0.00,VWS V14.01,2013-07-15 00:10:00,
2013-07-14 17:13:00,90.6,59.2,29.62,West,261,13.0,18.0,35,0.00,,---,0.00,VWS V14.01,2013-07-15 00:13:00,
2013-07-14 17:15:00,90.6,59.2,29.62,West,268,18.0,18.0,35,0.00,,---,0.00,VWS V14.01,2013-07-15 00:15:00,
2013-07-14 17:18:00,90.4,59.0,29.62,West,281,15.0,20.0,35,0.00,,---,0.00,VWS V14.01,2013-07-15 00:18:00,
2013-07-14 17:20:00,90.3,59.0,29.62,West,274,16.0,20.0,35,0.00,,---,0.00,VWS V14.01,2013-07-15 00:20:00,
2013-07-14 17:23:00,90.2,58.9,29.62,West,259,13.0,17.0,35,0.00,,---,0.00,VWS V14.01,2013-07-15 00:23:00,
2013-07-14 17:25:00,90.2,58.9,29.62,West,263,16.0,18.0,35,0.00,,---,0.00,VWS V14.01,2013-07-15 00:25:00,
2013-07-14 17:28:00,89.9,58.6,29.62,West,279,11.0,17.0,35,0.00,,---,0.00,VWS V14.01,2013-07-15 00:28:00,
2013-07-14 17:30:00,89.9,58.6,29.62,West,279,14.0,17.0,35,0.00,,---,0.00,VWS V14.01,2013-07-15 00:30:00,
2013-07-14 17:33:00,89.2,58.8,29.62,West,279,13.0,18.0,36,0.00,,---,0.00,VWS V14.01,2013-07-15 00:33:00,
2013-07-14 17:35:00,89.2,58.8,29.62,West,280,11.0,18.0,36,0.00,,---,0.00,VWS V14.01,2013-07-15 00:35:00,
2013-07-14 17:38:00,89.0,58.6,29.63,West,276,11.0,16.0,36,0.00,,---,0.00,VWS V14.01,2013-07-15 00:38:00,
2013-07-14 17:40:00,88.9,58.5,29.63,West,279,11.0,16.0,36,0.00,,---,0.00,VWS V14.01,2013-07-15 00:40:00,
2013-07-14 17:43:00,88.8,58.4,29.63,WNW,282,12.0,15.0,36,0.00,,---,0.00,VWS V14.01,2013-07-15 00:43:00,
2013-07-14 17:45:00,88.8,58.4,29.63,WNW,288,10.0,15.0,36,0.00,,---,0.00,VWS V14.01,2013-07-15 00:45:00,
2013-07-14 17:48:00,88.7,58.3,29.63,West,281,13.0,16.0,36,0.00,,---,0.00,VWS V14.01,2013-07-15 00:48:00,
2013-07-14 17:50:00,88.7,58.3,29.63,WNW,288,15.0,16.0,36,0.00,,---,0.00,VWS V14.01,2013-07-15 00:50:00,
2013-07-14 17:53:00,88.9,58.5,29.63,West,275,10.0,16.0,36,0.00,,---,0.00,VWS V14.01,2013-07-15 00:53:00,
2013-07-14 17:55:00,89.0,58.6,29.63,WNW,290,7.0,16.0,36,0.00,,---,0.00,VWS V14.01,2013-07-15 00:55:00,
2013-07-14 17:58:00,89.0,59.4,29.63,West,277,12.0,18.0,37,0.00,,---,0.00,VWS V14.01,2013-07-15 00:58:00,
2013-07-14 18:00:00,89.0,59.4,29.63,WNW,298,10.0,18.0,37,0.00,,---,0.00,VWS V14.01,2013-07-15 01:00:00,
2013-07-14 18:03:00,89.2,59.5,29.62,West,272,10.0,14.0,37,0.00,,---,0.00,VWS V14.01,2013-07-15 01:03:00,
2013-07-14 18:05:00,89.3,59.6,29.62,West,276,6.0,14.0,37,0.00,,---,0.00,VWS V14.01,2013-07-15 01:05:00,
2013-07-14 18:08:00,89.3,58.9,29.63,WNW,290,15.0,17.0,36,0.00,,---,0.00,VWS V14.01,2013-07-15 01:08:00,
2013-07-14 18:10:00,89.2,58.8,29.63,WNW,290,11.0,17.0,36,0.00,,---,0.00,VWS V14.01,2013-07-15 01:10:00,
2013-07-14 18:13:00,89.1,58.7,29.64,WNW,288,12.0,16.0,36,0.00,,---,0.00,VWS V14.01,2013-07-15 01:13:00,
2013-07-14 18:15:00,89.1,59.5,29.64,West,279,15.0,16.0,37,0.00,,---,0.00,VWS V14.01,2013-07-15 01:15:00,
2013-07-14 18:18:00,88.8,59.2,29.64,WNW,285,9.0,17.0,37,0.00,,---,0.00,VWS V14.01,2013-07-15 01:18:00,
2013-07-14 18:20:00,88.8,59.2,29.64,West,273,9.0,17.0,37,0.00,,---,0.00,VWS V14.01,2013-07-15 01:20:00,
2013-07-14 18:23:00,88.5,58.9,29.64,West,280,13.0,16.0,37,0.00,,---,0.00,VWS V14.01,2013-07-15 01:23:00,
2013-07-14 18:25:00,88.5,58.9,29.64,West,281,15.0,18.0,37,0.00,,---,0.00,VWS V14.01,2013-07-15 01:25:00,
2013-07-14 18:28:00,88.3,58.8,29.64,WNW,286,12.0,17.0,37,0.00,,---,0.00,VWS V14.01,2013-07-15 01:28:00,
2013-07-14 18:30:00,88.3,58.8,29.64,NW,304,13.0,17.0,37,0.00,,---,0.00,VWS V14.01,2013-07-15 01:30:00,
2013-07-14 18:33:00,88.2,58.7,29.64,WNW,286,9.0,15.0,37,0.00,,---,0.00,VWS V14.01,2013-07-15 01:33:00,
2013-07-14 18:35:00,88.2,58.7,29.64,West,275,9.0,15.0,37,0.00,,---,0.00,VWS V14.01,2013-07-15 01:35:00,
2013-07-14 18:38:00,88.1,58.6,29.64,WSW,256,11.0,17.0,37,0.00,,---,0.00,VWS V14.01,2013-07-15 01:38:00,
2013-07-14 18:40:00,88.1,58.6,29.64,West,276,10.0,17.0,37,0.00,,---,0.00,VWS V14.01,2013-07-15 01:40:00,
2013-07-14 18:42:00,87.9,58.4,29.64,West,270,15.0,15.0,37,0.00,,---,0.00,VWS V14.01,2013-07-15 01:42:00,
2013-07-14 18:45:00,87.9,58.4,29.64,West,280,12.0,15.0,37,0.00,,---,0.00,VWS V14.01,2013-07-15 01:45:00,
2013-07-14 18:47:00,87.6,58.1,29.64,WNW,290,11.0,18.0,37,0.00,,---,0.00,VWS V14.01,2013-07-15 01:47:00,
2013-07-14 18:50:00,87.6,58.1,29.64,WNW,295,14.0,18.0,37,0.00,,---,0.00,VWS V14.01,2013-07-15 01:50:00,
2013-07-14 18:52:00,87.3,58.6,29.64,West,279,11.0,15.0,38,0.00,,---,0.00,VWS V14.01,2013-07-15 01:52:00,
2013-07-14 18:55:00,87.3,58.6,29.64,West,275,11.0,15.0,38,0.00,,---,0.00,VWS V14.01,2013-07-15 01:55:00,
2013-07-14 18:57:00,87.1,58.4,29.64,West,279,10.0,14.0,38,0.00,,---,0.00,VWS V14.01,2013-07-15 01:57:00,
2013-07-14 19:00:00,87.1,58.4,29.64,West,279,10.0,14.0,38,0.00,,---,0.00,VWS V14.01,2013-07-15 02:00:00,
2013-07-14 19:02:00,86.7,58.8,29.64,West,274,9.0,17.0,39,0.00,,---,0.00,VWS V14.01,2013-07-15 02:02:00,
2013-07-14 19:05:00,86.6,58.7,29.64,West,276,9.0,17.0,39,0.00,,---,0.00,VWS V14.01,2013-07-15 02:05:00,
2013-07-14 19:07:00,86.5,58.6,29.65,West,273,12.0,15.0,39,0.00,,---,0.00,VWS V14.01,2013-07-15 02:07:00,
2013-07-14 19:10:00,86.4,58.5,29.65,WNW,282,10.0,15.0,39,0.00,,---,0.00,VWS V14.01,2013-07-15 02:10:00,
2013-07-14 19:12:00,86.2,58.4,29.64,WNW,283,3.0,13.0,39,0.00,,---,0.00,VWS V14.01,2013-07-15 02:12:00,
2013-07-14 19:15:00,86.2,58.4,29.64,WNW,283,3.0,13.0,39,0.00,,---,0.00,VWS V14.01,2013-07-15 02:15:00,
2013-07-14 19:17:00,86.1,57.5,29.64,WNW,297,6.0,13.0,38,0.00,,---,0.00,VWS V14.01,2013-07-15 02:17:00,
2013-07-14 19:20:00,86.1,57.5,29.64,WNW,297,6.0,13.0,38,0.00,,---,0.00,VWS V14.01,2013-07-15 02:20:00,
2013-07-14 19:22:00,86.0,58.2,29.65,West,277,7.0,13.0,39,0.00,,---,0.00,VWS V14.01,2013-07-15 02:22:00,
2013-07-14 19:25:00,86.0,58.2,29.65,WNW,282,11.0,13.0,39,0.00,,---,0.00,VWS V14.01,2013-07-15 02:25:00,
2013-07-14 19:27:00,85.9,57.4,29.65,WNW,283,6.0,11.0,38,0.00,,---,0.00,VWS V14.01,2013-07-15 02:27:00,
2013-07-14 19:30:00,85.9,57.4,29.65,WNW,297,3.0,11.0,38,0.00,,---,0.00,VWS V14.01,2013-07-15 02:30:00,
2013-07-14 19:32:00,85.7,57.2,29.65,West,272,6.0,10.0,38,0.00,,---,0.00,VWS V14.01,2013-07-15 02:32:00,
2013-07-14 19:35:00,85.7,57.2,29.65,WNW,292,5.0,10.0,38,0.00,,---,0.00,VWS V14.01,2013-07-15 02:35:00,
2013-07-14 19:37:00,85.6,57.8,29.65,WNW,284,6.0,9.0,39,0.00,,---,0.00,VWS V14.01,2013-07-15 02:37:00,
2013-07-14 19:40:00,85.6,57.8,29.65,WNW,285,3.0,9.0,39,0.00,,---,0.00,VWS V14.01,2013-07-15 02:40:00,
2013-07-14 19:42:00,85.3,58.3,29.65,WNW,284,3.0,9.0,40,0.00,,---,0.00,VWS V14.01,2013-07-15 02:42:00,
2013-07-14 19:45:00,85.3,58.3,29.65,WNW,284,3.0,9.0,40,0.00,,---,0.00,VWS V14.01,2013-07-15 02:45:00,
2013-07-14 19:47:00,85.1,58.1,29.65,West,272,5.0,11.0,40,0.00,,---,0.00,VWS V14.01,2013-07-15 02:47:00,
2013-07-14 19:50:00,85.1,58.1,29.65,WNW,286,7.0,11.0,40,0.00,,---,0.00,VWS V14.01,2013-07-15 02:50:00,
2013-07-14 19:52:00,85.0,58.7,29.65,WNW,288,3.0,7.0,41,0.00,,---,0.00,VWS V14.01,2013-07-15 02:52:00,
2013-07-14 19:55:00,85.0,58.7,29.65,WNW,288,3.0,9.0,41,0.00,,---,0.00,VWS V14.01,2013-07-15 02:55:00,
2013-07-14 19:57:00,84.8,58.5,29.65,WNW,288,4.0,7.0,41,0.00,,---,0.00,VWS V14.01,2013-07-15 02:57:00,
2013-07-14 20:00:00,84.8,58.5,29.65,WNW,288,4.0,7.0,41,0.00,,---,0.00,VWS V14.01,2013-07-15 03:00:00,
2013-07-14 20:02:00,84.7,59.1,29.65,WNW,300,0.0,7.0,42,0.00,,---,0.00,VWS V14.01,2013-07-15 03:02:00,
2013-07-14 20:05:00,84.7,59.1,29.65,WNW,300,0.0,7.0,42,0.00,,---,0.00,VWS V14.01,2013-07-15 03:05:00,
2013-07-14 20:07:00,84.5,58.9,29.66,NW,304,5.0,7.0,42,0.00,,---,0.00,VWS V14.01,2013-07-15 03:07:00,
2013-07-14 20:10:00,84.5,58.9,29.66,NW,310,5.0,7.0,42,0.00,,---,0.00,VWS V14.01,2013-07-15 03:10:00,
2013-07-14 20:12:00,84.4,58.8,29.66,NW,313,3.0,6.0,42,0.00,,---,0.00,VWS V14.01,2013-07-15 03:12:00,
2013-07-14 20:15:00,84.4,58.8,29.66,NW,313,3.0,6.0,42,0.00,,---,0.00,VWS V14.01,2013-07-15 03:15:00,
2013-07-14 20:17:00,84.2,58.6,29.66,NW,310,4.0,6.0,42,0.00,,---,0.00,VWS V14.01,2013-07-15 03:17:00,
2013-07-14 20:20:00,84.2,58.6,29.66,NW,311,3.0,6.0,42,0.00,,---,0.00,VWS V14.01,2013-07-15 03:20:00,
2013-07-14 20:22:00,84.0,59.1,29.67,NW,309,0.0,5.0,43,0.00,,---,0.00,VWS V14.01,2013-07-15 03:22:00,
2013-07-14 20:25:00,84.0,59.1,29.67,NW,309,0.0,5.0,43,0.00,,---,0.00,VWS V14.01,2013-07-15 03:25:00,
2013-07-14 20:27:00,83.8,58.9,29.67,WNW,296,3.0,6.0,43,0.00,,---,0.00,VWS V14.01,2013-07-15 03:27:00,
2013-07-14 20:30:00,83.8,58.9,29.67,WNW,296,2.0,6.0,43,0.00,,---,0.00,VWS V14.01,2013-07-15 03:30:00,
2013-07-14 20:32:00,83.7,58.8,29.67,NW,319,0.0,9.0,43,0.00,,---,0.00,VWS V14.01,2013-07-15 03:32:00,
2013-07-14 20:35:00,83.6,58.8,29.67,NW,318,1.0,9.0,43,0.00,,---,0.00,VWS V14.01,2013-07-15 03:35:00,
2013-07-14 20:37:00,83.6,58.8,29.67,NW,319,0.0,4.0,43,0.00,,---,0.00,VWS V14.01,2013-07-15 03:37:00,
2013-07-14 20:40:00,83.5,58.7,29.67,NW,318,0.0,4.0,43,0.00,,---,0.00,VWS V14.01,2013-07-15 03:40:00,
2013-07-14 20:42:00,83.4,59.2,29.67,NW,318,2.0,5.0,44,0.00,,---,0.00,VWS V14.01,2013-07-15 03:42:00,
2013-07-14 20:45:00,83.4,59.2,29.67,NW,315,6.0,6.0,44,0.00,,---,0.00,VWS V14.01,2013-07-15 03:45:00,
2013-07-14 20:47:00,83.4,59.2,29.67,NW,306,2.0,8.0,44,0.00,,---,0.00,VWS V14.01,2013-07-15 03:47:00,
2013-07-14 20:50:00,83.4,59.2,29.67,NW,306,1.0,8.0,44,0.00,,---,0.00,VWS V14.01,2013-07-15 03:50:00,
2013-07-14 20:52:00,83.3,59.1,29.67,WNW,291,1.0,7.0,44,0.00,,---,0.00,VWS V14.01,2013-07-15 03:52:00,
2013-07-14 20:55:00,83.3,59.1,29.67,WNW,291,2.0,7.0,44,0.00,,---,0.00,VWS V14.01,2013-07-15 03:55:00,
2013-07-14 20:57:00,83.2,59.0,29.67,NW,304,3.0,7.0,44,0.00,,---,0.00,VWS V14.01,2013-07-15 03:57:00,
2013-07-14 21:00:00,83.2,59.0,29.67,NW,304,3.0,7.0,44,0.00,,---,0.00,VWS V14.01,2013-07-15 04:00:00,
2013-07-14 21:01:00,83.1,59.0,29.67,NW,307,4.0,6.0,44,0.00,,---,0.00,VWS V14.01,2013-07-15 04:01:00,
2013-07-14 21:05:00,83.1,59.0,29.67,NW,312,2.0,6.0,44,0.00,,---,0.00,VWS V14.01,2013-07-15 04:05:00,
2013-07-14 21:06:00,82.9,58.8,29.67,NW,313,0.0,4.0,44,0.00,,---,0.00,VWS V14.01,2013-07-15 04:06:00,
2013-07-14 21:10:00,82.9,58.8,29.67,NW,315,3.0,6.0,44,0.00,,---,0.00,VWS V14.01,2013-07-15 04:10:00,
2013-07-14 21:11:00,82.8,59.3,29.67,NW,315,2.0,3.0,45,0.00,,---,0.00,VWS V14.01,2013-07-15 04:11:00,
2013-07-14 21:15:00,82.7,59.2,29.67,NW,314,3.0,5.0,45,0.00,,---,0.00,VWS V14.01,2013-07-15 04:15:00,
2013-07-14 21:16:00,82.5,59.0,29.67,NW,315,0.0,5.0,45,0.00,,---,0.00,VWS V14.01,2013-07-15 04:16:00,
2013-07-14 21:20:00,82.4,59.0,29.67,NW,315,2.0,5.0,45,0.00,,---,0.00,VWS V14.01,2013-07-15 04:20:00,
2013-07-14 21:21:00,82.0,59.2,29.67,NW,314,0.0,4.0,46,0.00,,---,0.00,VWS V14.01,2013-07-15 04:21:00,
2013-07-14 21:25:00,81.8,59.0,29.67,NW,314,0.0,4.0,46,0.00,,---,0.00,VWS V14.01,2013-07-15 04:25:00,
2013-07-14 21:26:00,81.6,59.4,29.67,NW,314,0.0,0.0,47,0.00,,---,0.00,VWS V14.01,2013-07-15 04:26:00,
2013-07-14 21:30:00,81.5,59.3,29.67,NW,314,0.0,0.0,47,0.00,,---,0.00,VWS V14.01,2013-07-15 04:30:00,
2013-07-14 21:31:00,81.3,59.2,29.67,NW,314,0.0,0.0,47,0.00,,---,0.00,VWS V14.01,2013-07-15 04:31:00,
2013-07-14 21:35:00,81.2,59.1,29.67,NW,314,0.0,0.0,47,0.00,,---,0.00,VWS V14.01,2013-07-15 04:35:00,
2013-07-14 21:36:00,81.1,59.6,29.67,NW,314,0.0,0.0,48,0.00,,---,0.00,VWS V14.01,2013-07-15 04:36:00,
2013-07-14 21:40:00,81.0,59.5,29.67,NW,314,0.0,0.0,48,0.00,,---,0.00,VWS V14.01,2013-07-15 04:40:00,
2013-07-14 21:41:00,80.9,59.4,29.67,NW,314,0.0,0.0,48,0.00,,---,0.00,VWS V14.01,2013-07-15 04:41:00,
2013-07-14 21:45:00,80.9,59.4,29.67,NW,314,0.0,0.0,48,0.00,,---,0.00,VWS V14.01,2013-07-15 04:45:00,
2013-07-14 21:46:00,80.8,59.9,29.67,NW,314,0.0,0.0,49,0.00,,---,0.00,VWS V14.01,2013-07-15 04:46:00,
2013-07-14 21:50:00,80.8,59.9,29.67,NW,314,0.0,0.0,49,0.00,,---,0.00,VWS V14.01,2013-07-15 04:50:00,
2013-07-14 21:51:00,80.7,59.8,29.67,NW,314,0.0,0.0,49,0.00,,---,0.00,VWS V14.01,2013-07-15 04:51:00,
2013-07-14 21:55:00,80.6,60.3,29.67,NW,314,0.0,0.0,50,0.00,,---,0.00,VWS V14.01,2013-07-15 04:55:00,
2013-07-14 21:56:00,80.4,59.5,29.67,NW,314,0.0,0.0,49,0.00,,---,0.00,VWS V14.01,2013-07-15 04:56:00,
2013-07-14 22:00:00,80.3,58.8,29.67,NW,314,0.0,0.0,48,0.00,,---,0.00,VWS V14.01,2013-07-15 05:00:00,
2013-07-14 22:01:00,80.3,59.4,29.67,NW,314,0.0,0.0,49,0.00,,---,0.00,VWS V14.01,2013-07-15 05:01:00,
2013-07-14 22:05:00,80.3,59.4,29.67,NW,315,0.0,0.0,49,0.00,,---,0.00,VWS V14.01,2013-07-15 05:05:00,
2013-07-14 22:06:00,80.2,59.9,29.67,NW,315,0.0,0.0,50,0.00,,---,0.00,VWS V14.01,2013-07-15 05:06:00,
2013-07-14 22:10:00,80.1,59.8,29.67,NW,314,0.0,0.0,50,0.00,,---,0.00,VWS V14.01,2013-07-15 05:10:00,
2013-07-14 22:11:00,80.0,59.7,29.67,NW,315,0.0,0.0,50,0.00,,---,0.00,VWS V14.01,2013-07-15 05:11:00,
2013-07-14 22:15:00,79.9,59.6,29.67,NW,315,0.0,0.0,50,0.00,,---,0.00,VWS V14.01,2013-07-15 05:15:00,
2013-07-14 22:16:00,79.8,59.5,29.67,NW,315,0.0,1.0,50,0.00,,---,0.00,VWS V14.01,2013-07-15 05:16:00,
2013-07-14 22:20:00,79.8,59.5,29.67,NW,315,0.0,1.0,50,0.00,,---,0.00,VWS V14.01,2013-07-15 05:20:00,
2013-07-14 22:21:00,79.7,59.4,29.67,NW,315,0.0,0.0,50,0.00,,---,0.00,VWS V14.01,2013-07-15 05:21:00,
2013-07-14 22:25:00,79.6,59.3,29.67,NW,316,0.0,0.0,50,0.00,,---,0.00,VWS V14.01,2013-07-15 05:25:00,
2013-07-14 22:26:00,79.6,59.3,29.67,NW,321,0.0,3.0,50,0.00,,---,0.00,VWS V14.01,2013-07-15 05:26:00,
2013-07-14 22:30:00,79.6,59.3,29.67,NW,321,0.0,3.0,50,0.00,,---,0.00,VWS V14.01,2013-07-15 05:30:00,
2013-07-14 22:31:00,79.6,59.3,29.67,NW,323,4.0,4.0,50,0.00,,---,0.00,VWS V14.01,2013-07-15 05:31:00,
2013-07-14 22:35:00,79.8,59.5,29.67,NW,324,0.0,4.0,50,0.00,,---,0.00,VWS V14.01,2013-07-15 05:35:00,
2013-07-14 22:36:00,79.8,59.5,29.67,NW,324,0.0,0.0,50,0.00,,---,0.00,VWS V14.01,2013-07-15 05:36:00,
2013-07-14 22:40:00,79.8,59.5,29.67,NW,323,0.0,0.0,50,0.00,,---,0.00,VWS V14.01,2013-07-15 05:40:00,
2013-07-14 22:41:00,79.8,59.5,29.67,NW,323,0.0,1.0,50,0.00,,---,0.00,VWS V14.01,2013-07-15 05:41:00,
2013-07-14 22:45:00,79.7,60.0,29.67,NW,323,0.0,1.0,51,0.00,,---,0.00,VWS V14.01,2013-07-15 05:45:00,
2013-07-14 22:46:00,79.5,59.8,29.67,NW,323,0.0,0.0,51,0.00,,---,0.00,VWS V14.01,2013-07-15 05:46:00,
2013-07-14 22:50:00,79.4,59.7,29.67,NW,323,0.0,0.0,51,0.00,,---,0.00,VWS V14.01,2013-07-15 05:50:00,
2013-07-14 22:51:00,79.3,60.2,29.67,NW,324,0.0,0.0,52,0.00,,---,0.00,VWS V14.01,2013-07-15 05:51:00,
2013-07-14 22:55:00,79.1,60.0,29.66,NW,324,0.0,0.0,52,0.00,,---,0.00,VWS V14.01,2013-07-15 05:55:00,
2013-07-14 22:56:00,78.8,60.2,29.66,NW,324,0.0,0.0,53,0.00,,---,0.00,VWS V14.01,2013-07-15 05:56:00,
2013-07-14 23:00:00,78.7,60.2,29.67,NW,324,0.0,0.0,53,0.00,,---,0.00,VWS V14.01,2013-07-15 06:00:00,
2013-07-14 23:01:00,78.6,60.1,29.66,NW,324,0.0,0.0,53,0.00,,---,0.00,VWS V14.01,2013-07-15 06:01:00,
2013-07-14 23:05:00,78.6,60.1,29.66,NW,323,0.0,0.0,53,0.00,,---,0.00,VWS V14.01,2013-07-15 06:05:00,
2013-07-14 23:06:00,78.5,60.0,29.66,NW,324,0.0,3.0,53,0.00,,---,0.00,VWS V14.01,2013-07-15 06:06:00,
2013-07-14 23:10:00,78.6,60.1,29.67,NW,325,0.0,3.0,53,0.00,,---,0.00,VWS V14.01,2013-07-15 06:10:00,
2013-07-14 23:11:00,78.6,60.1,29.67,NW,325,0.0,0.0,53,0.00,,---,0.00,VWS V14.01,2013-07-15 06:11:00,
2013-07-14 23:15:00,78.6,60.1,29.67,NW,325,0.0,0.0,53,0.00,,---,0.00,VWS V14.01,2013-07-15 06:15:00,
2013-07-14 23:16:00,78.6,60.1,29.67,NW,325,0.0,0.0,53,0.00,,---,0.00,VWS V14.01,2013-07-15 06:16:00,
2013-07-14 23:20:00,78.6,60.1,29.67,NW,325,0.0,1.0,53,0.00,,---,0.00,VWS V14.01,2013-07-15 06:20:00,
2013-07-14 23:21:00,78.7,60.2,29.66,NW,325,0.0,2.0,53,0.00,,---,0.00,VWS V14.01,2013-07-15 06:21:00,
2013-07-14 23:25:00,78.7,60.2,29.67,NW,325,0.0,2.0,53,0.00,,---,0.00,VWS V14.01,2013-07-15 06:25:00,
2013-07-14 23:26:00,78.7,60.2,29.67,NW,325,0.0,0.0,53,0.00,,---,0.00,VWS V14.01,2013-07-15 06:26:00,
2013-07-14 23:30:00,78.7,60.2,29.66,NW,325,0.0,2.0,53,0.00,,---,0.00,VWS V14.01,2013-07-15 06:30:00,
2013-07-14 23:31:00,78.7,60.2,29.67,NW,326,0.0,0.0,53,0.00,,---,0.00,VWS V14.01,2013-07-15 06:31:00,
2013-07-14 23:35:00,78.7,60.2,29.67,NW,326,0.0,1.0,53,0.00,,---,0.00,VWS V14.01,2013-07-15 06:35:00,
2013-07-14 23:36:00,78.7,60.2,29.67,NW,326,0.0,0.0,53,0.00,,---,0.00,VWS V14.01,2013-07-15 06:36:00,
2013-07-14 23:40:00,78.6,60.1,29.66,NW,326,0.0,0.0,53,0.00,,---,0.00,VWS V14.01,2013-07-15 06:40:00,
2013-07-14 23:41:00,78.5,60.0,29.67,NW,326,0.0,0.0,53,0.00,,---,0.00,VWS V14.01,2013-07-15 06:41:00,
2013-07-14 23:45:00,78.4,59.9,29.66,NW,326,0.0,0.0,53,0.00,,---,0.00,VWS V14.01,2013-07-15 06:45:00,
2013-07-14 23:46:00,78.4,59.9,29.66,NW,326,0.0,0.0,53,0.00,,---,0.00,VWS V14.01,2013-07-15 06:46:00,
2013-07-14 23:50:00,78.4,59.9,29.66,NW,326,3.0,3.0,53,0.00,,---,0.00,VWS V14.01,2013-07-15 06:50:00,
2013-07-14 23:51:00,78.4,59.9,29.66,NW,325,1.0,4.0,53,0.00,,---,0.00,VWS V14.01,2013-07-15 06:51:00,
2013-07-14 23:55:00,78.4,59.9,29.66,NW,325,0.0,4.0,53,0.00,,---,0.00,VWS V14.01,2013-07-15 06:55:00,
2013-07-14 23:56:00,78.3,59.8,29.66,NW,326,3.0,4.0,53,0.00,,---,0.00,VWS V14.01,2013-07-15 06:56:00,